Miscellaneous Local Product
Issued by NWS North Platte, NE

Home | Current Version | Previous Version | Text Only | Print | Product List | Glossary On
Versions: 1 2 3 4 5 6 7 8 9 10 11 12 13 14 15 16 17 18 19 20 21 22 23 24 25 26 27 28 29 30 31 32 33 34 35 36 37 38 39 40 41 42 43 44 45 46 47 48 49 50
000
AXUS43 KLBF 220810
MISLBF


WESTERN AND NORTH CENTRAL NEBRASKA HOURLY WEATHER ROUNDUP
NATIONAL WEATHER SERVICE NORTH PLATTE NE
200 AM CST WED NOV 22 2017

NOTE: "FAIR" INDICATES FEW OR NO CLOUDS BELOW 12,000 FEET WITH NO
SIGNIFICANT WEATHER AND/OR OBSTRUCTIONS TO VISIBILITY.

NOTE: STATIONS NOT REPORTING VARIABLES SUCH AS SKY/WEATHER OR
PRESSURE ARE PROVIDED BY RAWS AND APRS NETWORKS AND ARE NOT UNDER
NATIONAL WEATHER SERVICE QUALITY CONTROL.

...OBSERVATIONS IN AND NEAR THE EASTERN PANHANDLE OF NEBRASKA...

CITY           SKY/WX    TMP DP  RH WIND       PRES   REMARKS
PINE RIDGE     CLOUDY    34  27  75 SW8       30.16F WCI  27
GORDON         FAIR      28  24  86 W3        30.16F
CHADRON        CLOUDY    25  23  92 SW5       30.16F WCI  19
ALLIANCE       CLOUDY    28  26  92 SW3       30.18F
SIDNEY         CLOUDY    34  28  79 W6        30.21F WCI  29
CRESCENT LAKE    N/A     30  27  88 S5          N/A  WCI  25
$$

...OBSERVATIONS IN NORTHERN NEBRASKA AND FAR SOUTHERN SOUTH DAKOTA...

CITY           SKY/WX    TMP DP  RH WIND       PRES   REMARKS
WINNER         FAIR      23  14  68 S8        30.26F WCI  14
VALENTINE      CLOUDY    19  15  84 CALM      30.23F
THEDFORD       CLOUDY    26  17  66 S6        30.26F WCI  20
AINSWORTH      CLOUDY    22  15  72 S9        30.26F WCI  12
O`NEILL        CLOUDY    14  12  90 CALM      30.34F
ORD            CLOUDY    15  11  83 CALM      30.34F
BROKEN BOW     CLOUDY    20  13  74 S3        30.33F
VALENTINE NWR    N/A     22  14  71 S6          N/A  WCI  15
HALSEY           N/A     23  13  64 S6          N/A  WCI  16
BUTTE            N/A     14  10  83 S5          N/A  WCI   6
CHAMBERS         N/A     15   7  71 W7          N/A  WCI   5
EWING            N/A     12   9  87 CALM        N/A
$$

...OBSERVATIONS IN SOUTHWEST NEBRASKA AND FAR NORTHEAST COLORADO...

CITY           SKY/WX    TMP DP  RH WIND       PRES   REMARKS
HOLYOKE        FAIR      34  28  80 SW6       30.25F WCI  29
IMPERIAL       CLOUDY    27  24  89 S5        30.28F WCI  22
OGALLALA       CLOUDY    32  25  76 SW6       30.25F WCI  26
NORTH PLATTE   CLOUDY    23  17  78 E6        30.30F WCI  16
MCCOOK         CLOUDY    23  16  74 E3        30.34F
LEXINGTON      CLOUDY    24  15  69 S6        30.36F WCI  16
STAPLETON        N/A     22  15  74 CALM        N/A
GOTHENBURG       N/A     22  13  68 CALM        N/A
CALLAWAY         N/A     21  16  81 S5          N/A  WCI  15
$$

...OBSERVATIONS IN CENTRAL LINCOLN COUNTY AREA...

CITY           SKY/WX    TMP DP  RH WIND       PRES   REMARKS
N.P. AIRPORT   CLOUDY    23  17  78 E6        30.30F WCI  16
N.P. DOWNTOWN    N/A     27  17  66 CALM        N/A
N.P. SOUTHEAST   N/A     25  17  70 E3          N/A
N.P. HILLCREST   N/A     26  17  70 SE8         N/A  WCI  18
$$

...SOME OBSERVATIONS FROM AROUND THE REGION...

CITY           SKY/WX    TMP DP  RH WIND       PRES   REMARKS
DENVER         CLOUDY    35  30  82 SW7       30.24F WCI  29
COPPER MTN     CLOUDY    28  23  80 MISG      30.53F
GRAND JUNCTION CLOUDY    38  27  64 CALM      30.42R
LARAMIE        CLOUDY    39  30  70 W12       30.30S WCI  32
CHEYENNE       CLOUDY    42  33  70 W7        30.23S
CASPER         CLOUDY    46  31  55 SW16      30.19F
BISMARCK       CLOUDY    11   7  84 E6        30.19F WCI   1
RAPID CITY     CLOUDY    25  18  74 SE5       30.11F WCI  19
PIERRE         CLOUDY    16   9  74 SE5       30.24F WCI   9
SIOUX FALLS    CLOUDY    13   7  77 S3        30.34F
OMAHA          CLOUDY    16   9  74 NW7       30.43S WCI   6
GRAND ISLAND   CLOUDY    18  15  88 CALM      30.38F
SCOTTSBLUFF    CLOUDY    32  25  75 CALM      30.20S
KANSAS CITY    CLOUDY    23  14  68 N10       30.41R WCI  12
HILL CITY      CLOUDY    20  14  77 N3        30.39S
WICHITA        CLOUDY    27  15  61 NE9       30.41F WCI  18
DODGE CITY     CLOUDY    21  12  68 N3        30.37F
OKLAHOMA CITY  PTCLDY    34  13  41 N15       30.37R WCI  24
DALLAS         CLEAR     51  29  42 N14       30.25R
AMARILLO       CLOUDY    32  25  75 W7        30.39F WCI  26
$$




USA.gov is the U.S. government's official web portal to all federal, state and local government web resources and services.